Weather History for Lewisburg, WV

Change the Weather History Date:

Friday, October 28, 2011

  Actual Average Record
Temperature  
Mean Temperature 40 °F 47 °F  
Max Temperature 44 °F 61 °F 85 °F (1984)
Min Temperature 35 °F 34 °F 21 °F (2001)
Degree Days  
Heating Degree Days 26    
Month to date heating degree days  
Since 1 July heating degree days  
Cooling Degree Days 0    
Month to date cooling degree days  
Year to date cooling degree days  
Moisture  
Dew Point 33 °F    
Average Humidity 77    
Maximum Humidity 93    
Minimum Humidity 65    
Precipitation  
Precipitation 0.02 in 0.09 in 0.12 in (2012)
Month to date precipitation 2.29  
Year to date precipitation 33.67  
Snow  
Snow 0.00 in - - ()
Month to date snowfall  
Since 1 July snowfall  
Since 1 September snowfall  
Snow Depth -    
Sea Level Pressure  
Sea Level Pressure 30.09 in    
Wind  
Wind Speed 4 mph (ENE)    
Max Wind Speed 8 mph    
Max Gust Speed -    
Visibility 10 miles    
Events Rain , Snow    
T = Trace of Precipitation, MM = Missing Value Source: NWS Daily Summary

Daily Weather History Graph

Daily Weather History Graph

Search for Another Location

Airport:

Trip Planner

Search our weather history database for the weather conditions in past years. The results will help you decide how hot, cold, wet, or windy it might be!

Date:

Astronomy

Oct. 28, 2011 Rise Set
Actual Time 7:42 AM EDT 6:27 PM EDT
Civil Twilight 7:15 AM EDT 6:54 PM EDT
Nautical Twilight 6:44 AM EDT 7:25 PM EDT
Astronomical Twilight 6:14 AM EDT 7:55 PM EDT
Moon 9:53 AM EDT (10/28) 7:52 PM EDT (10/28)
Length of Visible Light 11h 38m
Length of Day
10h 44m
Waxing Crescent, 5% of the Moon is Illuminated
Oct 28
Waxing Crescent
Nov 2
First Quarter
Nov 10
Full
Nov 18
Last Quarter
Nov 25
New

Hourly Weather History & Observations

Time (EDT) Temp. Windchill Dew Point Humidity Pressure Visibility Wind Dir Wind Speed Gust Speed Precip Events Conditions
12:15 AM 44.6 °F 42.2 °F 37.4 °F 76% 30.03 in 10.0 mi North 4.6 mph - N/A   Overcast
12:55 AM 44.6 °F 43.1 °F 37.4 °F 76% 30.04 in 10.0 mi NW 3.5 mph - N/A   Overcast
1:15 AM 42.8 °F 40.1 °F 35.6 °F 76% 30.05 in 10.0 mi NNW 4.6 mph - N/A   Overcast
1:35 AM 42.8 °F 39.3 °F 35.6 °F 76% 30.06 in 10.0 mi North 5.8 mph - N/A   Overcast
1:55 AM 42.8 °F 40.1 °F 35.6 °F 76% 30.06 in 10.0 mi NNW 4.6 mph - N/A   Overcast
2:15 AM 42.8 °F 41.1 °F 35.6 °F 76% 30.06 in 10.0 mi NNW 3.5 mph - N/A   Overcast
2:35 AM 42.8 °F - 35.6 °F 76% 30.07 in 10.0 mi Calm Calm - N/A   Overcast
2:55 AM 42.8 °F 41.1 °F 35.6 °F 76% 30.07 in 10.0 mi NNW 3.5 mph - N/A   Overcast
3:15 AM 42.8 °F 41.1 °F 33.8 °F 70% 30.07 in 10.0 mi NNW 3.5 mph - N/A   Overcast
3:35 AM 41.0 °F - 35.6 °F 81% 30.06 in 10.0 mi Calm Calm - N/A   Mostly Cloudy
3:55 AM 41.0 °F - 35.6 °F 81% 30.06 in 10.0 mi Calm Calm - N/A   Mostly Cloudy
4:15 AM 41.0 °F 36.4 °F 35.6 °F 81% 30.06 in 10.0 mi NNE 6.9 mph - N/A   Mostly Cloudy
4:35 AM 41.0 °F 38.0 °F 33.8 °F 76% 30.05 in 10.0 mi NNE 4.6 mph - N/A   Scattered Clouds
4:55 AM 41.0 °F 38.0 °F 33.8 °F 76% 30.06 in 10.0 mi NNE 4.6 mph - N/A   Clear
5:15 AM 41.0 °F 39.0 °F 33.8 °F 76% 30.06 in 10.0 mi NNE 3.5 mph - N/A   Mostly Cloudy
5:35 AM 41.0 °F 38.0 °F 33.8 °F 76% 30.07 in 10.0 mi NNE 4.6 mph - N/A   Overcast
5:55 AM 41.0 °F 36.4 °F 33.8 °F 76% 30.08 in 10.0 mi NNE 6.9 mph - N/A   Mostly Cloudy
6:15 AM 39.2 °F - 33.8 °F 81% 30.10 in 10.0 mi Calm Calm - N/A   Mostly Cloudy
6:35 AM 37.4 °F - 33.8 °F 87% 30.10 in 10.0 mi Calm Calm - N/A   Mostly Cloudy
6:55 AM 37.4 °F 34.9 °F 32.0 °F 81% 30.10 in 10.0 mi ENE 3.5 mph - N/A   Scattered Clouds
7:15 AM 37.4 °F - 32.0 °F 81% 30.10 in 10.0 mi Calm Calm - N/A   Mostly Cloudy
7:35 AM 37.4 °F 34.9 °F 32.0 °F 81% 30.10 in 10.0 mi NE 3.5 mph - N/A   Scattered Clouds
7:55 AM 37.4 °F - 32.0 °F 81% 30.11 in 10.0 mi Calm Calm - N/A   Clear
8:15 AM 37.4 °F 34.9 °F 32.0 °F 81% 30.12 in 10.0 mi North 3.5 mph - N/A   Scattered Clouds
8:35 AM 39.2 °F 37.0 °F 32.0 °F 75% 30.12 in 10.0 mi NNE 3.5 mph - N/A   Mostly Cloudy
8:55 AM 39.2 °F 35.9 °F 33.8 °F 81% 30.12 in 10.0 mi NE 4.6 mph - N/A   Overcast
9:15 AM 39.2 °F 34.2 °F 33.8 °F 81% 30.12 in 10.0 mi NNE 6.9 mph - N/A   Overcast
9:35 AM 41.0 °F 38.0 °F 33.8 °F 76% 30.12 in 10.0 mi NE 4.6 mph - N/A   Overcast
9:55 AM 41.0 °F 38.0 °F 33.8 °F 76% 30.12 in 10.0 mi NNE 4.6 mph - N/A   Overcast
10:15 AM 41.0 °F 37.1 °F 32.0 °F 70% 30.12 in 10.0 mi East 5.8 mph - N/A   Overcast
10:35 AM 41.0 °F - 32.0 °F 70% 30.13 in 10.0 mi Calm Calm - N/A   Overcast
10:55 AM 41.0 °F 35.8 °F 32.0 °F 70% 30.13 in 10.0 mi ESE 8.1 mph - N/A   Overcast
11:15 AM 41.0 °F 37.1 °F 30.2 °F 65% 30.14 in 10.0 mi East 5.8 mph - N/A   Overcast
11:35 AM 41.0 °F 36.4 °F 32.0 °F 70% 30.15 in 10.0 mi East 6.9 mph - N/A   Unknown
11:55 AM 41.0 °F 37.1 °F 30.2 °F 65% 30.16 in 10.0 mi East 5.8 mph - N/A   Overcast
12:15 PM 41.0 °F 36.4 °F 30.2 °F 65% 30.15 in 10.0 mi ENE 6.9 mph - N/A   Overcast
12:35 PM 41.0 °F 39.0 °F 30.2 °F 65% 30.15 in 10.0 mi East 3.5 mph - N/A   Overcast
12:55 PM 41.0 °F 38.0 °F 30.2 °F 65% 30.15 in 10.0 mi SE 4.6 mph - N/A   Overcast
1:35 PM 41.0 °F 37.1 °F 32.0 °F 70% 30.12 in 10.0 mi SE 5.8 mph - N/A   Overcast
1:55 PM 41.0 °F 35.8 °F 32.0 °F 70% 30.11 in 10.0 mi East 8.1 mph - N/A   Overcast
2:15 PM 41.0 °F 39.0 °F 32.0 °F 70% 30.11 in 10.0 mi ESE 3.5 mph - N/A   Overcast
2:35 PM 41.0 °F 38.0 °F 32.0 °F 70% 30.11 in 10.0 mi East 4.6 mph - N/A   Overcast
2:55 PM 41.0 °F 35.8 °F 32.0 °F 70% 30.10 in 10.0 mi East 8.1 mph - N/A   Overcast
3:15 PM 41.0 °F 36.4 °F 32.0 °F 70% 30.10 in 10.0 mi SE 6.9 mph - N/A Rain Light Rain
3:35 PM 41.0 °F 36.4 °F 32.0 °F 70% 30.10 in 10.0 mi East 6.9 mph - N/A   Light Drizzle
3:55 PM 41.0 °F 36.4 °F 32.0 °F 70% 30.10 in 10.0 mi ESE 6.9 mph - N/A Rain Light Rain
4:15 PM 39.2 °F 35.9 °F 32.0 °F 75% 30.10 in 10.0 mi ESE 4.6 mph - N/A Rain Light Rain
4:35 PM 39.2 °F 35.9 °F 33.8 °F 81% 30.09 in 10.0 mi East 4.6 mph - N/A Rain Light Rain
4:55 PM 37.4 °F 34.9 °F 32.0 °F 81% 30.08 in 10.0 mi ESE 3.5 mph - N/A Rain Light Rain
5:15 PM 37.4 °F 34.9 °F 33.8 °F 87% 30.07 in 10.0 mi ESE 3.5 mph - N/A Rain Rain
5:35 PM 37.4 °F 34.9 °F 33.8 °F 87% 30.07 in 7.0 mi SE 3.5 mph - N/A Snow Light Snow
5:55 PM 37.4 °F 33.8 °F 33.8 °F 87% 30.08 in 10.0 mi ESE 4.6 mph - 0.01 in Rain Light Rain
6:15 PM 37.4 °F - 33.8 °F 87% 30.08 in 7.0 mi Calm Calm - N/A   Overcast
6:35 PM 35.6 °F 31.7 °F 33.8 °F 93% 30.09 in 7.0 mi ESE 4.6 mph - 0.01 in   Overcast
6:55 PM 35.6 °F 31.7 °F 32.0 °F 87% 30.09 in 4.0 mi East 4.6 mph - 0.01 in Snow Light Snow
7:15 PM 35.6 °F 29.9 °F 32.0 °F 87% 30.10 in 3.0 mi ESE 6.9 mph - N/A Snow Light Snow
7:55 PM 35.6 °F 31.7 °F 32.0 °F 87% 30.09 in 5.0 mi ENE 4.6 mph - N/A Snow Light Snow
8:15 PM 35.6 °F 32.8 °F 32.0 °F 87% 30.09 in 3.0 mi NE 3.5 mph - N/A Snow Light Snow
8:35 PM 33.8 °F 28.6 °F 33.8 °F 100% 30.08 in 3.0 mi NE 5.8 mph - 0.01 in Snow Light Snow
9:15 PM 33.8 °F 29.6 °F 33.8 °F 100% 30.07 in 2.5 mi NNE 4.6 mph - N/A Snow Light Snow
9:35 PM 33.8 °F 29.6 °F 33.8 °F 100% 30.07 in 3.0 mi NE 4.6 mph - 0.01 in Snow Light Snow
9:55 PM 33.8 °F 28.6 °F 32.0 °F 93% 30.07 in 4.0 mi NE 5.8 mph - 0.01 in Snow Light Snow
10:15 PM 33.8 °F 30.8 °F 32.0 °F 93% 30.07 in 2.0 mi NE 3.5 mph - 0.01 in Snow Light Snow
10:35 PM 33.8 °F 29.6 °F 32.0 °F 93% 30.05 in 2.5 mi NE 4.6 mph - 0.01 in Snow Light Snow
10:55 PM 33.8 °F 30.8 °F 32.0 °F 93% 30.05 in 3.0 mi NE 3.5 mph - 0.01 in Snow Light Snow
11:15 PM 33.8 °F 30.8 °F 32.0 °F 93% 30.05 in 5.0 mi NE 3.5 mph - N/A Snow Light Snow
11:35 PM 33.8 °F - 32.0 °F 93% 30.04 in 5.0 mi Calm Calm - 0.01 in Snow Light Snow
11:55 PM 33.8 °F 30.8 °F 32.0 °F 93% 30.04 in 5.0 mi ENE 3.5 mph - 0.01 in Snow Light Snow